Погода в Каменной

Украина / Черновицкая область     48°13′24″N   25°51′20″E
темп.,
°C
ветер,
м/с
пор.,
м/с
влажн.,
%
обл.,
%
осадки,
мм/ч
давл.,
гПа
погр.,
м
7 марта, вс
вс723:00−4з35757 0.0 1031116
02:00−3юз35754 0.0 1031109
05:00−3юз36700 0.0 1029118
08:00−2юз49630 0.0 1027255
11:00+3зюз35510 0.0 1024570
14:00+5з45460 0.0 10221092
17:00+4зюз37550 0.0 1019262
20:000зюз48620 0.0 1020146
8 марта, пн
пн823:00−2зюз23650 0.0 101940
02:00−2зюз22660 0.0 101829
05:00−2зюз23671 0.0 101745
08:00−1з23645 0.0 1018133
11:00+3сз455349 0.0 10171019
14:00+3ссз566373 0.0 10171007
17:00+1ссз467599 0.1 1017892
20:00−1сз247599 0.2 1020133
9 марта, вт
вт923:00−2з2579100 0.0 1022166
02:00−3з257573 0.0 1022163
05:00−3з22730 0.0 102175
08:00−2зсз246528 0.0 1022306
11:000сз335498 0.0 10211077
14:00+2с324899 0.0 10211364
17:00+1ссв2254100 0.0 10201121
20:00−2всв1168100 0.0 102321
10 марта, ср
ср1023:00−2юв0169100 0.0 102321
02:00−2ю1173100 0.0 102323
05:00−2ююз0182100 0.0 102360
08:00−2с1180100 0.1 1024329
11:000ссв225893 0.1 10251010
14:00+2ссв224996 0.3 10241377
17:00+2с224997 0.0 10241364
20:00−1юв126493 0.0 102521
11 марта, чт
чт1123:00−2ю237335 0.0 102652
02:00−2ююв357617 0.0 1026146
05:00−3ю23729 0.0 102465
08:00−1ю235632 0.0 1023132
11:00+5ююз3633100 0.0 1020663
14:00+8юз5840100 0.0 10171141
17:00+6ююз51152100 0.0 1015613
20:00+4юз31160100 0.0 1015451